| time (UTC) | temp F | wind direction | speed MPH | gust MPH | rain 1hr in | rain 24hr in | rain mn in | humidity % | barometer mb |
| 20260906200042 | 87 | 68 | 10.0 | 17.0 | 0.00 | 0.00 | 0.00 | 63 | 1011.2 |
| 20260906194541 | 86 | 63 | 10.0 | 18.0 | 0.00 | 0.00 | 0.00 | 64 | 1011.2 |
| 20260906193036 | 85 | 60 | 6.0 | 16.0 | 0.00 | 0.00 | 0.00 | 69 | 1011.3 |
| 20260906191533 | 84 | 49 | 8.0 | 18.0 | 0.00 | 0.00 | 0.00 | 70 | 1011.8 |
| 20260906190029 | 83 | 90 | 9.0 | 18.0 | 0.00 | 0.00 | 0.00 | 72 | 1012.1 |
| 20260906184529 | 82 | 76 | 12.0 | 20.0 | 0.00 | 0.00 | 0.00 | 73 | 1012.6 |
| 20260906183026 | 81 | 64 | 9.0 | 20.0 | 0.00 | 0.00 | 0.00 | 76 | 1013.1 |
| 20260906181521 | 80 | 60 | 9.0 | 19.0 | 0.00 | 0.00 | 0.00 | 76 | 1013.2 |
| 20260906180018 | 79 | 47 | 9.0 | 21.0 | 0.00 | 0.00 | 0.00 | 79 | 1013.5 |
| 20260906174516 | 78 | 74 | 2.0 | 13.0 | 0.00 | 0.00 | 0.00 | 82 | 1014.0 |
| 20260906173012 | 77 | 71 | 4.0 | 11.0 | 0.00 | 0.00 | 0.00 | 84 | 1014.1 |
| 20260906171511 | 76 | 88 | 0.0 | 6.0 | 0.00 | 0.00 | 0.00 | 87 | 1014.6 |
| 20260906170007 | 75 | 84 | 0.0 | 0.0 | 0.00 | 0.00 | 0.00 | 91 | 1014.9 |
| 20260906164504 | 0 | 0.0 | 0.0 | 0.00 | 0.00 | 0.00 | 1015.1 | ||
| 20260906163122 | 0 | 0.0 | 0.0 | 0.00 | 0.00 | 0.00 | 1015.3 | ||
| 20260906161555 | 0 | 0.0 | 0.0 | 0.00 | 0.00 | 0.00 | 1015.3 | ||
| 20260906160051 | 0 | 0.0 | 0.0 | 0.00 | 0.00 | 0.00 | 1015.2 | ||
| 20260906154547 | 0 | 0.0 | 0.0 | 0.00 | 0.00 | 0.00 | 1015.2 | ||
| 20260906153047 | 0 | 0.0 | 0.0 | 0.00 | 0.00 | 0.00 | 1015.0 | ||
| 20260906151538 | 0 | 0.0 | 0.0 | 0.00 | 0.00 | 0.00 | 1015.1 | ||
| 20260906150033 | 0 | 0.0 | 0.0 | 0.00 | 0.00 | 0.00 | 1015.0 | ||
| 20260906144529 | 0 | 0.0 | 0.0 | 0.00 | 0.00 | 0.00 | 1014.9 | ||
| 20260906143024 | 0 | 0.0 | 0.0 | 0.00 | 0.00 | 0.00 | 1015.1 | ||
| 20260906141520 | 0 | 0.0 | 0.0 | 0.00 | 0.00 | 0.00 | 1015.0 | ||
| 20260906140016 | 0 | 0.0 | 0.0 | 0.00 | 0.00 | 0.00 | 1014.8 | ||
| 20260906134514 | 0 | 0.0 | 0.0 | 0.00 | 0.00 | 0.00 | 1014.9 | ||
| 20260906133008 | 0 | 0.0 | 0.0 | 0.00 | 0.00 | 0.00 | 1014.7 | ||
| 20260906131504 | 0 | 0.0 | 0.0 | 0.00 | 0.00 | 0.00 | 1014.6 | ||
| 20260906130110 | 0 | 0.0 | 0.0 | 0.00 | 0.00 | 0.00 | 1014.2 | ||
| 20260906124554 | 0 | 0.0 | 0.0 | 0.00 | 0.00 | 0.00 | 1014.0 | ||
| 20260906123053 | 0 | 0.0 | 0.0 | 0.00 | 0.00 | 0.00 | 1013.2 | ||
| 20260906121549 | 0 | 0.0 | 0.0 | 0.00 | 0.00 | 0.00 | 1012.8 | ||
| 20260906120043 | 0 | 0.0 | 0.0 | 0.00 | 0.00 | 0.00 | 1012.5 | ||
| 20260906114536 | 0 | 0.0 | 0.0 | 0.00 | 0.00 | 0.00 | 1012.2 | ||
| 20260906113032 | 0 | 0.0 | 0.0 | 0.00 | 0.00 | 0.00 | 1011.9 | ||
| 20260906111528 | 0 | 0.0 | 0.0 | 0.00 | 0.00 | 0.00 | 1011.4 | ||
| 20260906110023 | 0 | 45 | 0.0 | 1.0 | 0.00 | 0.00 | 0.00 | 1011.1 | |
| 20260906104524 | 73 | 62 | 0.0 | 1.0 | 0.00 | 0.00 | 0.00 | 78 | 1010.9 |
| 20260906103020 | 73 | 85 | 0.0 | 1.0 | 0.00 | 0.00 | 0.00 | 78 | 1010.9 |
| 20260906101520 | 73 | 178 | 0.0 | 1.0 | 0.00 | 0.00 | 0.00 | 79 | 1010.9 |
| 20260906100019 | 73 | 112 | 0.0 | 1.0 | 0.00 | 0.00 | 0.00 | 79 | 1011.0 |
| 20260906094518 | 73 | 87 | 0.0 | 0.0 | 0.00 | 0.00 | 0.00 | 78 | 1011.0 |
| 20260906093028 | 73 | 112 | 0.0 | 0.0 | 0.00 | 0.00 | 0.00 | 78 | 1010.8 |
| 20260906091516 | 74 | 82 | 0.0 | 1.0 | 0.00 | 0.00 | 0.00 | 78 | 1010.9 |
| 20260906090016 | 74 | 76 | 0.0 | 0.0 | 0.00 | 0.00 | 0.00 | 76 | 1010.9 |
| 20260906084516 | 74 | 86 | 0.0 | 0.0 | 0.00 | 0.00 | 0.00 | 76 | 1010.7 |
| 20260906083014 | 74 | 77 | 0.0 | 0.0 | 0.00 | 0.00 | 0.00 | 77 | 1010.8 |
| 20260906081516 | 74 | 84 | 0.0 | 0.0 | 0.00 | 0.00 | 0.00 | 78 | 1010.6 |
| 20260906080012 | 74 | 81 | 0.0 | 0.0 | 0.00 | 0.00 | 0.00 | 79 | 1010.9 |
| 20260906074512 | 74 | 81 | 0.0 | 0.0 | 0.00 | 0.00 | 0.00 | 81 | 1010.9 |
| 20260906073009 | 75 | 76 | 0.0 | 2.0 | 0.00 | 0.00 | 0.00 | 80 | 1010.9 |
| 20260906071508 | 74 | 87 | 0.0 | 3.0 | 0.00 | 0.00 | 0.00 | 83 | 1010.7 |
| 20260906070008 | 74 | 79 | 0.0 | 0.0 | 0.00 | 0.00 | 0.00 | 83 | 1010.8 |
| 20260906064509 | 74 | 81 | 0.0 | 0.0 | 0.00 | 0.00 | 0.00 | 83 | 1010.7 |
| 20260906063003 | 74 | 96 | 0.0 | 0.0 | 0.00 | 0.00 | 0.00 | 83 | 1010.6 |
| 20260906061503 | 74 | 76 | 0.0 | 0.0 | 0.00 | 0.00 | 0.00 | 82 | 1010.5 |
| 20260906060105 | 74 | 74 | 0.0 | 0.0 | 0.00 | 0.00 | 0.00 | 82 | 1010.3 |
| 20260906054559 | 74 | 64 | 0.0 | 0.0 | 0.00 | 0.00 | 0.00 | 80 | 1010.2 |
| 20260906053057 | 75 | 78 | 0.0 | 0.0 | 0.00 | 0.00 | 0.00 | 79 | 1010.0 |
| 20260906051558 | 75 | 83 | 0.0 | 0.0 | 0.00 | 0.00 | 0.00 | 79 | 1010.0 |
| 20260906050055 | 74 | 76 | 0.0 | 0.0 | 0.00 | 0.00 | 0.00 | 80 | 1010.1 |
| 20260906044551 | 75 | 78 | 0.0 | 0.0 | 0.00 | 0.00 | 0.00 | 80 | 1010.1 |
| 20260906043048 | 76 | 66 | 0.0 | 0.0 | 0.00 | 0.00 | 0.00 | 79 | 1010.3 |
| 20260906041549 | 76 | 74 | 0.0 | 0.0 | 0.00 | 0.00 | 0.00 | 76 | 1010.4 |
| 20260906040049 | 77 | 83 | 0.0 | 0.0 | 0.00 | 0.00 | 0.00 | 77 | 1010.4 |
| 20260906034545 | 77 | 75 | 0.0 | 1.0 | 0.00 | 0.00 | 0.00 | 77 | 1010.3 |
| 20260906033045 | 77 | 75 | 0.0 | 0.0 | 0.00 | 0.00 | 0.00 | 78 | 1010.1 |
| 20260906031544 | 76 | 95 | 0.0 | 0.0 | 0.00 | 0.00 | 0.00 | 77 | 1010.0 |
| 20260906030045 | 77 | 85 | 0.0 | 0.0 | 0.00 | 0.00 | 0.00 | 77 | 1009.9 |
| 20260906024542 | 77 | 77 | 0.0 | 0.0 | 0.00 | 0.00 | 0.00 | 78 | 1010.0 |
| 20260906023046 | 77 | 72 | 0.0 | 0.0 | 0.00 | 0.00 | 0.00 | 78 | 1009.5 |
| 20260906021540 | 78 | 102 | 0.0 | 0.0 | 0.00 | 0.00 | 0.00 | 76 | 1009.4 |
| 20260906020040 | 78 | 90 | 0.0 | 0.0 | 0.00 | 0.00 | 0.00 | 75 | 1009.3 |
| 20260906014544 | 79 | 78 | 0.0 | 0.0 | 0.00 | 0.00 | 0.00 | 72 | 1009.3 |
| 20260906013040 | 79 | 78 | 0.0 | 0.0 | 0.00 | 0.00 | 0.00 | 70 | 1009.1 |
| 20260906011539 | 81 | 76 | 0.0 | 0.0 | 0.00 | 0.00 | 0.00 | 67 | 1008.3 |
| 20260906010037 | 83 | 72 | 0.0 | 0.0 | 0.00 | 0.00 | 0.00 | 64 | 1008.4 |
| 20260906004536 | 85 | 111 | 0.0 | 0.0 | 0.00 | 0.00 | 0.00 | 60 | 1008.8 |
| 20260906003035 | 88 | 98 | 0.0 | 0.0 | 0.00 | 0.00 | 0.00 | 58 | 1008.7 |
| 20260906001536 | 88 | 45 | 0.0 | 1.0 | 0.00 | 0.00 | 0.00 | 58 | 1008.7 |
| 20260906000034 | 88 | 128 | 0.0 | 11.0 | 0.00 | 0.00 | 0.00 | 57 | 1008.9 |
| 20260905234533 | 88 | 48 | 0.0 | 1.0 | 0.00 | 0.00 | 0.00 | 56 | 1008.8 |
| 20260905233035 | 88 | 69 | 0.0 | 7.0 | 0.00 | 0.00 | 0.00 | 55 | 1008.8 |
| 20260905231530 | 86 | 215 | 0.0 | 3.0 | 0.00 | 0.00 | 0.00 | 55 | 1008.9 |
| 20260905230029 | 86 | 93 | 0.0 | 5.0 | 0.00 | 0.00 | 0.00 | 55 | 1008.9 |
| 20260905224529 | 85 | 171 | 1.0 | 22.0 | 0.00 | 0.00 | 0.00 | 57 | 1008.8 |
| 20260905223030 | 84 | 64 | 18.0 | 28.0 | 0.00 | 0.00 | 0.00 | 59 | 1008.8 |
| 20260905221535 | 83 | 138 | 13.0 | 22.0 | 0.00 | 0.00 | 0.00 | 64 | 1008.9 |
| 20260905220027 | 86 | 96 | 7.0 | 25.0 | 0.00 | 0.00 | 0.00 | 55 | 1008.7 |
| 20260905214526 | 82 | 55 | 19.0 | 28.0 | 0.00 | 0.00 | 0.00 | 64 | 1008.7 |
| 20260905213124 | 78 | 55 | 14.0 | 28.0 | 0.00 | 0.00 | 0.00 | 73 | 1008.7 |
| 20260905211526 | 80 | 47 | 17.0 | 25.0 | 0.00 | 0.00 | 0.00 | 71 | 1009.0 |
| 20260905210029 | 81 | 65 | 9.0 | 15.0 | 0.00 | 0.00 | 0.00 | 68 | 1008.7 |
| 20260905204523 | 84 | 107 | 0.0 | 8.0 | 0.00 | 0.00 | 0.00 | 62 | 1008.7 |
| 20260905203022 | 83 | 66 | 2.0 | 21.0 | 0.00 | 0.00 | 0.00 | 64 | 1008.6 |
| 20260905201526 | 90 | 22 | 13.0 | 34.0 | 0.00 | 0.00 | 0.00 | 48 | 1008.5 |